Location: Cieszkowy
(50.3290°N, 20.5336°E)
Time: 23:30:08
(UTC+00:00)

Cosmos 1812 - Pass Details

Date: 15 June 2024
Orbit: 464 x 470 km, 82.5° (Epoch: 18 July)

Event Time Altitude Azimuth Distance (km) Brightness Sun altitude
Rises 01:07:27 0° 355° (N) 2,540 7.1 -9.3°
Reaches altitude 10° 01:09:39 10° 3° (N) 1,654 6.2 -9.1°
Maximum altitude 01:13:05 41° 75° (ENE) 695 3.8 -8.8°
Drops below altitude 10° 01:16:29 10° 147° (SSE) 1,631 5.0 -8.5°
Sets 01:18:33 0° 155° (SSE) 2,463 5.9 -8.3°
